Showing default

UNICORN-2R, 68477

Orbit data source: Space-Track

UNICORN-2R, 68477 is a payload satellite owned by Alba Orbital (DE) in SSO that was launched on Mon, 30 Mar 2026 UTC via an FALCON 9 launch vehicle from the Air Force Western Test Range (AFWTR). Payload-class satellites include a variety of spacecraft equipped with specific instruments for various scientific and technological missions. These include communications satellites like Starlink; space stations such as the ISS; scientific satellites like the Hubble; Earth observation satellites from companies like Planet Labs, Umbra, and HawkEye 360; GPS; miniature CubeSats for education and research; and military/defense satellites.

Loading next visibility...
Identifier
68477, 2026-067BP
Orbit
SSO
Country
Flag of DEDE / GER
Related business
Manufacturer
Alba Orbital
Mission
Operational Commercial Imaging
Bus & Motor
POCKETQUBE 3P, Unknown motor
Mass
~0.75 kg wet, ~0.75 kg dry
Launch date (UTC)
2026-03-30 (6 months ago)
Launch vehicle
FALCON 9
Launch site
Air Force Western Test Range (AFWTR)
Object type
Payload
Rocket body
Debris
Shape & HBR
Box + 2 Pan, 0.2 m
Radar Cross Section
0.016 m², Medium (>0.1 m² and < 1m²)

Expand to show TLE details & history
Last TLE update: 17 hours ago

TLE from 17 hours ago
0 UNICORN-2R
1 68477U 26067BP  26263.13664404  .00005894  00000-0  57105-3 0  9997
2 68477  97.7586 219.8448 0006048 104.5499 255.6392 14.93071976 25299
Epoch: 2026-09-20T03:16Z
TLE epoch observation values (Epoch: 2026-09-20T03:16:46.045Z)
Latitude
0.00004°
Longitude
171.61779°
Altitude
592.455 km
Speed
7.563 km/s
True Right ascension
14h 39m 22s
True Declination
0° 00' 00"
Sunlit
Object was in daylight at epoch
Visualization orbit readout
Latitude
Unknown
Longitude
Unknown
Altitude
Unknown
Speed
Unknown
Apparent Right ascension
Unknown
Apparent Declination
Unknown
Sunlit
N/A
Visualization observer readout
Local Sidereal Time
12:54:19
Azimuth
Unknown
Elevation
Unknown
Doppler factor
Unknown
Orbital elements
Apogee altitude
589.592 km
Perigee altitude
581.169 km
Semi-major axis
6,963.518 km
Eccentricity
0.0006
Inclination
97.7586°
RAAN
219.8448°
Arg. of periapsis
104.5499°
True anomaly
255.57207°
Mean anomaly
255.6392°
Eccentric anomaly
255.60564°
Mean motion
3.73508 °/min
Orbital period
96.38 mins
BSTAR
0.00057105
Loading maneuver chart data...
Computing Atmospheric mass density...
Loading historical data...
Loading historical data...
Loading historical data...
Loading historical data...
Loading historical data...
Loading historical data...
Loading historical data...

Documentation

Showing up to 5 results
|